sat.trackr.live / text

‹ back to catalog

STARLINK-11207 [DTC]

NORAD 60933 · 2024-155K

PAYLOAD ACTIVE UNKNOWN

§ Identity

Operator
Country
US
Launch date
2024-08-31
Launch site
AFWTR
Launch vehicle
Mass (kg)
RCS (m²)

Purposes: comms

External: N2YO · Heavens-Above · Gunter

§ Orbital elements

Epoch: 2026-09-21T20:09:46.240128Z

Period
91.74 min
Inclination
53.1586°
Eccentricity
0.0000692
Mean motion
15.69706431 rev/d
Perigee alt
359.3 km
Apogee alt
360.2 km
Semi-major
6,737.9 km
B*
1.3686e-6
RAAN
94.0351°
Arg perigee
96.8613°
Mean anomaly
263.2484°
Rev number
11,921

§ Raw data

STARLINK-11207 [DTC]1 60933U 24155K   26264.84011852 -.00000422  00000+0  13686-5 0  99942 60933  53.1586  94.0351 0000692  96.8613 263.2484 15.69706431119218

JSON: /api/v1/satellites/60933 · /tle

For live sub-satellite position, see the globe view (requires WebGL).

§ Visibility from observer

Set your observer location to see the next 7 days of passes ≥ 10°. The values pass through the URL so the page stays shareable.

No JS? Fill the form by hand. The geolocation button needs JavaScript.